Wind_Speed
4 4 4 4 4 3 3 3 3 2 2 2 2 1 1 0 1 0 0 1 1 1 1 2 2 3 3 3 2 2 2 2 2 2 2 2 2 2 2 2 2 2 3
5 5 4 4 4 4 3 3 3 3 3 3 2 2 1 1 1 1 1 1 1 1 1 2 2 2 2 3 2 2 2 3 3 3 2 2 2 2 3 3 2 2 2
6 6 6 6 6 5 5 4 4 4 4 4 3 3 3 3 2 2 2 2 2 2 2 2 2 3 3 3 3 3 3 3 3 3 3 3 3 3 3 3 3 3 3
8 8 8 8 8 7 6 6 6 5 5 5 5 4 4 4 4 4 4 4 4 3 3 3 3 3 3 3 3 3 4 4 4 4 4 4 4 4 4 4 4 4 5
9 9 9 9 9 8 8 8 7 7 6 7 7 7 6 6 6 6 5 5 5 4 4 4 4 4 4 4 4 4 5 5 5 5 5 6 5 5 6 5 5 5 6
9 10 10 10 10 9 9 8 8 8 8 8 8 8 8 8 7 7 7 7 6 6 6 5 6 6 6 6 6 6 6 6 6 6 7 7 7 7 7 7 7 7 7
9 10 9 9 9 10 10 10 9 9 9 9 9 9 9 9 9 9 9 8 8 8 7 7 7 8 8 8 8 8 8 8 8 8 9 9 9 9 9 9 9 9 9
9 9 9 8 8 10 10 10 11 11 11 11 11 11 10 10 11 11 11 11 11 10 10 9 9 10 10 10 10 10 10 10 11 11 11 11 10 11 11 11 11 12 12
10 9 9 9 9 10 11 12 12 12 12 12 12 11 11 12 12 12 12 12 12 12 12 11 11 11 12 12 13 13 13 13 13 13 14 13 13 13 14 14 14 14 14
11 10 9 9 10 11 12 12 13 13 14 13 13 13 13 13 14 14 14 14 14 14 14 14 13 13 13 13 14 15 15 15 15 15 15 15 16 16 16 17 17 17 17
11 10 10 11 11 11 12 13 14 15 15 15 15 15 15 15 15 16 16 17 16 16 16 16 16 15 15 15 16 17 17 18 18 18 18 18 18 19 18 19 19 20 20
11 11 11 12 12 13 13 14 14 15 16 16 16 16 17 17 18 18 18 18 18 18 19 18 18 18 18 18 18 19 20 20 20 20 20 20 21 21 21 21 22 22 23
12 11 11 12 12 13 13 14 15 15 16 16 17 18 19 19 20 20 19 19 20 20 20 20 20 20 20 20 20 21 21 22 22 22 22 22 23 23 23 24 24 24 25
13 12 12 12 13 13 14 15 16 15 16 17 18 19 19 20 20 21 21 21 21 21 21 21 22 22 22 23 22 23 23 23 24 24 24 24 24 25 25 26 26 27 28
13 12 12 12 12 13 14 15 15 15 16 17 18 19 20 21 20 20 21 22 22 22 22 23 23 24 25 24 24 24 24 24 24 25 26 26 27 27 27 28 29 29 30
15 13 13 13 12 12 13 13 14 15 16 17 19 20 21 22 22 21 22 23 23 23 23 24 25 25 25 24 26 26 26 26 26 27 27 28 28 29 29 30 31 31 31
15 14 14 13 12 12 12 13 14 15 15 16 17 18 18 19 20 22 23 23 23 23 24 24 24 24 25 25 26 26 27 27 28 28 28 29 29 30 31 32 32 32 32
15 14 14 14 14 13 13 14 14 15 15 16 16 17 18 19 20 21 21 22 23 23 23 23 24 25 26 26 26 27 27 28 29 29 29 30 30 30 31 32 33 33 34
14 14 14 14 15 15 15 15 15 15 16 16 16 17 17 18 19 20 21 21 22 23 23 24 24 25 26 27 28 27 27 27 29 29 29 30 31 32 32 33 33 34 35
15 14 14 14 15 15 15 15 15 15 16 16 17 17 17 18 19 20 20 20 21 22 23 23 24 25 26 27 28 28 28 29 29 30 30 31 31 32 33 34 34 35 36
15 15 15 15 15 15 15 15 15 15 15 16 16 17 17 17 18 19 19 20 21 22 22 23 25 26 27 27 28 29 29 29 30 31 32 32 33 34 35 35 35 36 36
16 15 15 15 15 15 15 16 16 16 17 17 17 17 18 17 18 19 19 20 21 22 23 25 26 26 26 28 29 30 30 30 31 32 33 33 34 35 37 37 37 37 37
16 15 15 15 15 16 16 16 16 16 17 17 17 17 18 19 19 20 21 22 22 23 24 25 25 26 27 29 30 30 31 31 32 33 33 34 34 35 35 36 36 36 37
15 16 16 16 16 17 16 16 16 17 18 18 18 18 18 19 19 21 22 22 23 24 25 26 27 27 28 28 29 30 31 32 32 33 34 34 34 35 36 36 36 36 35
16 16 17 16 16 16 17 17 18 18 19 19 19 19 20 20 21 22 22 23 24 24 26 27 28 28 29 29 29 30 31 32 33 33 34 34 34 34 35 35 35 35 35
17 17 17 17 17 17 18 19 19 19 20 19 20 21 22 22 23 23 24 25 25 26 27 27 28 29 30 30 31 31 32 33 33 33 33 34 34 34 34 34 35 35 35
Wind_Direction
282 270 268 275 271 267 258 241 230 225 226 220 213 208 183 139 154 183 284 315 321 338 351 348 349 352 347 341 332 312 316 321 329 332 323 319 318 318 323 314 287 257 249
283 274 270 279 280 268 248 239 240 247 247 233 232 242 239 252 251 241 262 289 310 316 332 341 342 343 344 341 338 320 313 317 319 324 322 311 300 300 298 295 277 264 262
280 277 270 273 276 272 261 252 249 253 254 249 247 253 258 266 267 254 266 274 289 297 307 320 327 325 328 334 331 326 319 315 309 309 306 306 301 291 288 285 273 266 264
276 272 267 267 268 265 262 258 254 250 253 254 252 253 256 264 274 266 265 269 276 283 292 301 313 313 312 309 309 308 306 302 299 294 292 293 296 288 279 276 270 265 263
279 272 265 265 265 264 262 256 254 251 254 255 256 257 258 259 267 269 266 270 268 268 280 289 296 303 302 295 294 295 297 293 293 293 288 285 287 282 277 273 271 267 264
284 276 268 263 263 264 264 258 256 255 254 256 259 261 262 261 264 266 266 269 269 269 275 284 290 295 297 289 289 288 287 290 287 287 288 284 283 280 276 274 273 270 267
291 279 268 266 263 261 262 260 256 257 257 258 262 266 265 265 268 269 268 271 273 273 274 278 284 289 294 292 289 288 283 287 285 283 283 284 282 280 277 275 272 273 272
299 282 277 270 266 261 258 258 255 257 260 260 261 266 268 268 270 271 270 273 276 277 277 276 280 281 283 284 284 284 284 283 284 285 285 285 287 283 278 275 272 274 275
303 289 280 274 271 263 259 260 257 259 262 261 261 262 265 268 270 269 270 272 275 276 278 278 279 280 281 282 282 281 282 284 286 284 285 283 282 283 279 275 273 274 275
303 297 287 282 276 266 263 262 262 263 264 266 266 266 266 268 268 270 271 272 273 273 275 277 277 279 283 283 282 282 281 283 285 286 283 283 280 281 281 277 275 274 274
304 299 287 280 278 277 267 265 266 266 265 265 266 266 268 269 270 272 272 273 274 274 273 275 277 278 280 282 282 282 283 283 285 284 283 281 279 279 280 279 277 276 275
307 304 295 286 283 281 274 269 270 271 267 267 266 266 269 270 272 273 275 276 277 277 277 276 275 278 280 282 282 282 282 283 283 283 283 281 278 277 277 277 278 277 275
309 304 297 289 286 281 275 272 272 271 269 269 267 268 271 271 273 274 275 276 278 280 280 280 278 278 281 281 282 284 284 282 282 282 281 281 280 278 277 277 277 276 276
314 304 300 292 287 282 278 276 275 273 271 268 268 270 272 272 274 275 275 276 278 281 281 279 278 279 280 280 281 284 284 284 283 282 281 281 281 280 279 279 278 277 277
319 311 301 294 291 288 286 281 278 275 274 272 272 272 272 273 274 275 277 278 278 279 281 281 281 282 280 280 282 283 284 284 284 285 282 281 281 281 280 279 279 279 278
317 313 308 301 295 293 291 289 285 282 279 277 277 277 277 276 274 275 276 278 279 279 280 281 282 282 281 283 284 284 283 284 284 284 283 281 281 283 282 281 280 279 278
316 312 307 303 297 295 293 292 292 290 287 285 284 285 283 281 280 279 279 279 280 281 281 280 282 282 282 283 283 283 283 285 285 284 282 282 283 283 282 281 281 280 278
315 314 311 305 300 297 296 296 295 293 292 291 289 291 291 289 287 286 283 282 283 284 284 284 284 284 285 285 287 289 288 286 286 285 284 284 284 284 284 283 282 280 280
313 313 312 310 307 303 300 299 299 296 293 293 292 290 290 290 290 289 287 287 287 286 286 286 285 287 288 289 291 291 290 290 288 286 286 285 285 284 284 284 282 281 281
313 311 310 311 310 309 310 309 306 302 300 297 296 295 294 294 293 293 291 291 290 289 289 289 288 287 288 290 292 291 290 291 289 288 287 286 285 285 285 285 285 284 284
313 310 308 309 311 311 312 312 313 312 307 304 302 301 299 299 298 297 295 295 294 294 293 292 291 291 289 289 291 291 291 290 291 290 289 287 286 286 287 287 287 286 286
313 310 308 308 310 312 311 312 315 314 313 308 304 301 301 301 300 299 298 297 295 295 294 294 294 293 291 291 292 293 292 291 291 292 291 290 289 288 287 287 287 287 286
313 310 310 309 310 312 311 314 316 314 314 312 308 305 303 302 302 301 299 297 296 296 297 298 298 296 295 295 294 294 294 294 292 292 291 292 291 290 290 290 290 288 287
316 314 311 310 310 311 312 313 313 313 314 314 312 309 306 304 303 303 300 299 298 298 298 299 300 300 298 297 297 296 295 295 294 294 294 293 293 292 291 290 290 289 288
313 313 313 314 315 315 315 316 316 315 315 315 315 316 314 311 310 309 307 305 304 303 303 302 301 300 299 298 298 298 297 296 295 295 294 294 293 293 292 291 290 290 289
314 315 314 314 315 315 315 315 315 315 315 315 316 316 316 315 313 311 311 310 308 307 306 305 303 301 300 299 298 297 297 297 296 295 294 294 294 293 292 291 291 291 291
Height
5905 5905 5905 5906 5906 5906 5906 5906 5907 5907 5908 5908 5908 5908 5908 5909 5909 5909 5909 5909 5909 5909 5909 5909 5908 5908 5908 5907 5907 5907 5907 5907 5907 5907 5907 5907 5907 5906 5906 5906 5906 5906 5906
5905 5905 5905 5905 5906 5906 5906 5906 5907 5907 5908 5908 5908 5908 5908 5908 5908 5909 5909 5909 5909 5909 5909 5908 5908 5908 5907 5907 5907 5906 5906 5906 5906 5906 5906 5906 5906 5906 5906 5905 5905 5905 5906
5904 5904 5904 5905 5905 5905 5905 5906 5906 5906 5907 5908 5908 5908 5908 5908 5908 5908 5908 5908 5909 5909 5908 5908 5908 5908 5907 5907 5907 5906 5906 5906 5905 5905 5905 5905 5905 5905 5905 5905 5905 5905 5905
5903 5903 5903 5904 5904 5904 5904 5905 5905 5906 5906 5907 5907 5907 5908 5908 5908 5908 5908 5908 5908 5908 5908 5908 5908 5907 5907 5907 5906 5906 5905 5905 5905 5905 5904 5904 5904 5904 5904 5903 5903 5904 5904
5902 5901 5902 5902 5902 5903 5903 5903 5904 5904 5905 5906 5906 5907 5907 5907 5907 5907 5908 5907 5907 5907 5907 5907 5907 5907 5906 5906 5906 5905 5905 5904 5904 5904 5903 5903 5903 5902 5902 5902 5902 5902 5902
5899 5899 5900 5900 5901 5901 5901 5902 5902 5903 5903 5904 5905 5906 5906 5906 5906 5906 5907 5906 5906 5906 5906 5906 5906 5906 5905 5905 5905 5904 5904 5903 5903 5902 5902 5902 5901 5901 5901 5901 5900 5900 5900
5897 5896 5897 5897 5898 5899 5900 5900 5900 5901 5902 5902 5903 5904 5904 5905 5905 5905 5905 5905 5905 5905 5905 5905 5904 5904 5904 5903 5903 5902 5902 5902 5901 5901 5900 5900 5899 5899 5899 5899 5898 5898 5898
5895 5894 5895 5895 5896 5897 5897 5898 5899 5899 5900 5900 5901 5901 5902 5903 5903 5903 5903 5903 5903 5903 5903 5902 5902 5902 5902 5902 5901 5901 5900 5900 5899 5899 5898 5898 5897 5897 5896 5896 5896 5896 5895
5894 5893 5893 5893 5894 5894 5895 5896 5896 5897 5897 5898 5898 5899 5899 5900 5900 5901 5900 5900 5900 5900 5900 5900 5900 5899 5899 5899 5898 5898 5897 5897 5896 5896 5895 5895 5894 5894 5893 5893 5892 5892 5892
5892 5891 5891 5892 5892 5892 5892 5893 5894 5894 5895 5895 5896 5896 5897 5897 5897 5897 5897 5897 5897 5897 5897 5896 5896 5896 5896 5896 5895 5895 5894 5893 5893 5892 5892 5891 5891 5890 5889 5889 5889 5888 5888
5890 5889 5889 5889 5889 5889 5890 5890 5891 5891 5891 5892 5893 5893 5893 5893 5893 5894 5894 5893 5893 5893 5893 5893 5892 5892 5892 5892 5891 5891 5890 5890 5889 5888 5887 5887 5886 5886 5885 5884 5884 5884 5883
5887 5887 5886 5886 5886 5887 5887 5887 5887 5888 5888 5889 5889 5889 5890 5890 5890 5890 5890 5889 5889 5889 5889 5888 5888 5887 5887 5886 5886 5886 5885 5885 5884 5883 5883 5882 5881 5881 5880 5879 5879 5878 5878
5885 5884 5884 5884 5883 5883 5883 5884 5884 5884 5884 5885 5885 5885 5885 5885 5885 5885 5886 5885 5885 5885 5884 5884 5883 5882 5881 5882 5881 5880 5880 5879 5879 5878 5877 5877 5876 5875 5874 5873 5873 5872 5871
5882 5882 5881 5881 5880 5880 5880 5880 5880 5880 5880 5881 5880 5881 5881 5880 5880 5881 5881 5880 5880 5880 5879 5878 5878 5877 5877 5876 5875 5875 5874 5873 5873 5872 5871 5870 5870 5869 5868 5867 5866 5865 5865
5880 5879 5878 5878 5877 5877 5877 5876 5876 5876 5876 5876 5876 5876 5876 5876 5875 5875 5875 5875 5875 5875 5874 5873 5872 5872 5871 5870 5870 5869 5868 5867 5866 5866 5865 5864 5863 5862 5861 5860 5859 5858 5857
5878 5877 5876 5875 5874 5874 5873 5873 5873 5873 5872 5872 5871 5871 5871 5871 5870 5870 5870 5870 5869 5869 5868 5867 5866 5866 5865 5864 5864 5863 5862 5861 5860 5859 5858 5857 5855 5854 5853 5852 5851 5849 5848
5876 5875 5874 5873 5872 5871 5870 5870 5870 5869 5868 5868 5867 5866 5866 5865 5865 5865 5864 5864 5863 5863 5863 5862 5860 5860 5859 5858 5857 5856 5855 5854 5853 5852 5850 5849 5848 5846 5845 5844 5842 5841 5840
5874 5872 5871 5870 5869 5868 5868 5867 5866 5865 5865 5864 5863 5862 5861 5860 5860 5859 5859 5858 5858 5857 5857 5856 5855 5854 5853 5852 5850 5849 5848 5847 5846 5844 5842 5841 5839 5838 5837 5835 5833 5832 5830
5871 5870 5869 5868 5867 5866 5864 5863 5862 5862 5861 5860 5859 5858 5857 5856 5855 5855 5854 5853 5852 5851 5851 5850 5849 5848 5847 5845 5844 5842 5841 5839 5838 5836 5834 5833 5831 5829 5827 5825 5823 5822 5820
5869 5868 5867 5865 5864 5863 5862 5860 5859 5858 5857 5856 5855 5854 5852 5852 5851 5850 5849 5848 5847 5845 5844 5843 5843 5842 5840 5839 5837 5835 5833 5832 5830 5828 5826 5824 5822 5820 5818 5816 5814 5812 5810
5866 5865 5864 5863 5861 5860 5859 5858 5856 5855 5854 5852 5851 5849 5848 5847 5846 5845 5844 5842 5841 5840 5839 5838 5836 5835 5833 5832 5830 5828 5826 5824 5822 5820 5818 5816 5813 5811 5809 5806 5804 5802 5799
5864 5862 5861 5860 5859 5858 5856 5855 5853 5852 5850 5849 5847 5845 5844 5843 5842 5840 5839 5837 5836 5835 5833 5832 5830 5828 5826 5824 5822 5820 5818 5816 5814 5811 5809 5806 5804 5801 5799 5796 5794 5791 5788
5860 5859 5858 5857 5856 5854 5853 5852 5850 5849 5847 5845 5843 5842 5840 5839 5837 5836 5834 5832 5830 5828 5827 5825 5823 5821 5819 5816 5814 5812 5809 5807 5804 5802 5799 5796 5793 5791 5788 5785 5783 5780 5777
5857 5856 5855 5854 5853 5851 5850 5849 5847 5845 5843 5841 5840 5838 5836 5834 5832 5830 5829 5827 5824 5822 5820 5818 5816 5813 5811 5808 5806 5803 5800 5797 5795 5792 5789 5786 5783 5780 5777 5774 5772 5769 5766
5855 5853 5852 5851 5850 5848 5847 5845 5843 5842 5840 5838 5836 5834 5831 5830 5827 5825 5823 5821 5818 5816 5813 5811 5808 5805 5803 5800 5797 5794 5791 5789 5786 5783 5779 5776 5773 5770 5767 5764 5761 5758 5755
5852 5851 5850 5848 5847 5845 5843 5842 5840 5838 5836 5834 5832 5829 5827 5825 5822 5820 5817 5815 5812 5809 5807 5804 5801 5798 5795 5792 5788 5785 5782 5779 5776 5773 5769 5766 5763 5760 5757 5754 5751 5748 5745